Вернуться в каталог

STARLINK-35604

АктивенСвязьVLEO
NORAD 66802·PAYLOAD·🇺🇸 United States

Запущен Dec 1, 2025 с Cape Canaveral Space Force Station

Loading…

Ближайшие Пролёты (ближайшие 24 часа)

TLE

СвежийSource: CelesTrak SupGP

Эпоха: Sep 15, 2026, 03:57 UTC

1 66802C 25278M   26258.16506944  .00043753  00000+0  15848-2 0  2581
2 66802  43.0023 124.4855 0001525 279.0117 125.0771 15.27555888    13

Отслеживайте STARLINK-35604 в реальном времени с AllMySat

Download on the App Store